Time,TemperatureF,DewpointF,PressureIn,WindDirection,WindDirectionDegrees,WindSpeedMPH,WindSpeedGustMPH,Humidity,HourlyPrecipIn,Conditions,Clouds,dailyrainin,SoftwareType,DateUTC
2013-01-30 00:06:00,48.4,43.2,30.10,East,85,4.0,4.0,82,0.00,,,0.00,Wunderground v.1.15,2013-01-29 22:06:00,
2013-01-30 00:16:00,48.4,42.8,30.10,East,83,2.0,4.0,81,0.00,,,0.00,Wunderground v.1.15,2013-01-29 22:16:00,
2013-01-30 00:25:00,48.4,42.8,30.10,East,83,3.0,4.0,81,0.00,,,0.00,Wunderground v.1.15,2013-01-29 22:25:00,
2013-01-30 00:35:00,48.4,42.8,30.10,East,82,3.0,3.0,81,0.00,,,0.00,Wunderground v.1.15,2013-01-29 22:35:00,
2013-01-30 00:40:00,48.4,42.8,30.10,East,81,3.0,3.0,81,0.00,,,0.00,Wunderground v.1.15,2013-01-29 22:40:00,
2013-01-30 00:46:00,48.4,42.8,30.10,East,81,3.0,4.0,81,0.00,,,0.00,Wunderground v.1.15,2013-01-29 22:46:00,
2013-01-30 00:55:00,48.4,42.8,30.11,ESE,102,4.0,4.0,81,0.00,,,0.00,Wunderground v.1.15,2013-01-29 22:55:00,
2013-01-30 01:01:00,48.4,42.8,30.11,ESE,114,4.0,4.0,81,0.00,,,0.00,Wunderground v.1.15,2013-01-29 23:01:00,
2013-01-30 01:10:00,48.4,42.5,30.10,East,96,5.0,5.0,80,0.00,,,0.00,Wunderground v.1.15,2013-01-29 23:10:00,
2013-01-30 01:16:00,48.3,42.4,30.10,East,95,5.0,7.0,80,0.00,,,0.00,Wunderground v.1.15,2013-01-29 23:16:00,
2013-01-30 01:25:00,48.3,42.1,30.09,East,98,4.0,5.0,79,0.00,,,0.00,Wunderground v.1.15,2013-01-29 23:25:00,
2013-01-30 01:35:00,48.2,42.0,30.09,East,97,3.0,3.0,79,0.00,,,0.00,Wunderground v.1.15,2013-01-29 23:35:00,
2013-01-30 01:46:00,48.1,41.9,30.09,East,84,3.0,4.0,79,0.00,,,0.00,Wunderground v.1.15,2013-01-29 23:46:00,
2013-01-30 01:55:00,48.1,41.6,30.09,ENE,78,2.0,2.0,78,0.00,,,0.00,Wunderground v.1.15,2013-01-29 23:55:00,
2013-01-30 02:01:00,48.0,41.5,30.09,ENE,78,2.0,2.0,78,0.00,,,0.00,Wunderground v.1.15,2013-01-30 00:01:00,
2013-01-30 02:10:00,47.9,41.4,30.09,ENE,73,1.0,2.0,78,0.00,,,0.00,Wunderground v.1.15,2013-01-30 00:10:00,
2013-01-30 02:20:00,47.8,41.3,30.09,NE,34,2.0,4.0,78,0.00,,,0.00,Wunderground v.1.15,2013-01-30 00:20:00,
2013-01-30 02:25:00,47.8,41.3,30.09,ENE,63,2.0,4.0,78,0.00,,,0.00,Wunderground v.1.15,2013-01-30 00:25:00,
2013-01-30 02:31:00,47.7,41.2,30.09,ENE,78,2.0,2.0,78,0.00,,,0.00,Wunderground v.1.15,2013-01-30 00:31:00,
2013-01-30 02:40:00,47.6,41.4,30.08,NE,42,3.0,3.0,79,0.00,,,0.00,Wunderground v.1.15,2013-01-30 00:40:00,
2013-01-30 02:46:00,47.7,41.5,30.08,ENE,61,2.0,3.0,79,0.00,,,0.00,Wunderground v.1.15,2013-01-30 00:46:00,
2013-01-30 02:55:00,47.8,41.6,30.08,East,90,2.0,7.0,79,0.00,,,0.00,Wunderground v.1.15,2013-01-30 00:55:00,
2013-01-30 03:05:00,47.8,41.6,30.08,East,84,4.0,10.0,79,0.00,,,0.00,Wunderground v.1.15,2013-01-30 01:05:00,
2013-01-30 03:10:00,47.9,41.7,30.07,NE,46,5.0,10.0,79,0.00,,,0.00,Wunderground v.1.15,2013-01-30 01:10:00,
2013-01-30 03:16:00,48.2,41.3,30.07,ESE,119,4.0,4.0,77,0.00,,,0.00,Wunderground v.1.15,2013-01-30 01:16:00,
2013-01-30 03:25:00,48.4,41.5,30.08,SE,133,2.0,4.0,77,0.00,,,0.00,Wunderground v.1.15,2013-01-30 01:25:00,
2013-01-30 03:31:00,48.4,41.2,30.08,SE,124,2.0,2.0,76,0.00,,,0.00,Wunderground v.1.15,2013-01-30 01:31:00,
2013-01-30 03:40:00,48.4,41.5,30.08,SE,127,1.0,2.0,77,0.00,,,0.00,Wunderground v.1.15,2013-01-30 01:40:00,
2013-01-30 03:46:00,48.3,41.4,30.07,SE,127,0.0,0.0,77,0.00,,,0.00,Wunderground v.1.15,2013-01-30 01:46:00,
2013-01-30 03:55:00,48.4,41.2,30.07,ESE,105,5.0,5.0,76,0.00,,,0.00,Wunderground v.1.15,2013-01-30 01:55:00,
2013-01-30 04:01:00,48.4,41.2,30.07,ESE,115,5.0,5.0,76,0.00,,,0.00,Wunderground v.1.15,2013-01-30 02:01:00,
2013-01-30 04:10:00,48.4,41.2,30.07,East,97,3.0,3.0,76,0.00,,,0.00,Wunderground v.1.15,2013-01-30 02:10:00,
2013-01-30 04:20:00,48.2,41.3,30.07,East,101,2.0,3.0,77,0.00,,,0.00,Wunderground v.1.15,2013-01-30 02:20:00,
2013-01-30 04:25:00,48.1,41.2,30.08,ENE,71,3.0,6.0,77,0.00,,,0.00,Wunderground v.1.15,2013-01-30 02:25:00,
2013-01-30 04:35:00,48.1,41.2,30.07,East,98,5.0,5.0,77,0.00,,,0.00,Wunderground v.1.15,2013-01-30 02:35:00,
2013-01-30 04:40:00,48.0,41.5,30.07,East,90,6.0,6.0,78,0.00,,,0.00,Wunderground v.1.15,2013-01-30 02:40:00,
2013-01-30 04:50:00,47.8,41.3,30.07,East,82,7.0,7.0,78,0.00,,,0.00,Wunderground v.1.15,2013-01-30 02:50:00,
2013-01-30 05:01:00,47.8,41.3,30.07,ENE,71,7.0,10.0,78,0.00,,,0.00,Wunderground v.1.15,2013-01-30 03:01:00,
2013-01-30 05:10:00,47.9,41.4,30.07,East,86,9.0,10.0,78,0.00,,,0.00,Wunderground v.1.15,2013-01-30 03:10:00,
2013-01-30 05:20:00,47.8,41.3,30.07,ENE,63,7.0,7.0,78,0.00,,,0.00,Wunderground v.1.15,2013-01-30 03:20:00,
2013-01-30 05:25:00,47.8,41.6,30.07,NE,43,6.0,7.0,79,0.00,,,0.00,Wunderground v.1.15,2013-01-30 03:25:00,
2013-01-30 05:31:00,47.7,41.5,30.07,ENE,69,5.0,5.0,79,0.00,,,0.00,Wunderground v.1.15,2013-01-30 03:31:00,
2013-01-30 05:40:00,47.7,41.5,30.07,ENE,71,4.0,6.0,79,0.00,,,0.00,Wunderground v.1.15,2013-01-30 03:40:00,
2013-01-30 05:46:00,47.6,41.4,30.07,ENE,58,4.0,5.0,79,0.00,,,0.00,Wunderground v.1.15,2013-01-30 03:46:00,
2013-01-30 05:55:00,47.6,41.4,30.07,NE,40,3.0,3.0,79,0.00,,,0.00,Wunderground v.1.15,2013-01-30 03:55:00,
2013-01-30 06:01:00,47.5,41.3,30.07,ENE,63,2.0,3.0,79,0.00,,,0.00,Wunderground v.1.15,2013-01-30 04:01:00,
2013-01-30 06:10:00,47.5,41.6,30.06,NE,47,2.0,14.0,80,0.00,,,0.00,Wunderground v.1.15,2013-01-30 04:10:00,
2013-01-30 06:20:00,47.5,41.6,30.06,ENE,63,2.0,2.0,80,0.00,,,0.00,Wunderground v.1.15,2013-01-30 04:20:00,
2013-01-30 06:25:00,47.6,41.7,30.06,ENE,71,2.0,4.0,80,0.00,,,0.00,Wunderground v.1.15,2013-01-30 04:25:00,
2013-01-30 06:31:00,47.6,41.7,30.07,ENE,74,3.0,3.0,80,0.00,,,0.00,Wunderground v.1.15,2013-01-30 04:31:00,
2013-01-30 06:40:00,47.7,41.5,30.07,NE,40,2.0,3.0,79,0.00,,,0.00,Wunderground v.1.15,2013-01-30 04:40:00,
2013-01-30 06:46:00,47.7,41.8,30.07,NE,36,2.0,2.0,80,0.00,,,0.00,Wunderground v.1.15,2013-01-30 04:46:00,
2013-01-30 06:55:00,47.6,41.7,30.07,NE,36,2.0,2.0,80,0.00,,,0.00,Wunderground v.1.15,2013-01-30 04:55:00,
2013-01-30 07:01:00,47.6,41.7,30.07,NE,40,2.0,3.0,80,0.00,,,0.00,Wunderground v.1.15,2013-01-30 05:01:00,
2013-01-30 07:10:00,47.6,41.7,30.07,ENE,78,2.0,3.0,80,0.00,,,0.00,Wunderground v.1.15,2013-01-30 05:10:00,
2013-01-30 07:16:00,47.5,41.6,30.08,ENE,78,3.0,3.0,80,0.00,,,0.00,Wunderground v.1.15,2013-01-30 05:16:00,
2013-01-30 07:25:00,47.4,41.9,30.08,East,87,3.0,3.0,81,0.00,,,0.00,Wunderground v.1.15,2013-01-30 05:25:00,
2013-01-30 07:31:00,47.3,41.8,30.08,East,94,3.0,3.0,81,0.00,,,0.00,Wunderground v.1.15,2013-01-30 05:31:00,
2013-01-30 07:40:00,47.3,41.4,30.08,East,96,4.0,4.0,80,0.00,,,0.00,Wunderground v.1.15,2013-01-30 05:40:00,
2013-01-30 07:46:00,47.3,41.4,30.07,East,96,4.0,4.0,80,0.00,,,0.00,Wunderground v.1.15,2013-01-30 05:46:00,
2013-01-30 07:55:00,47.3,41.4,30.08,East,92,3.0,5.0,80,0.00,,,0.00,Wunderground v.1.15,2013-01-30 05:55:00,
2013-01-30 08:01:00,47.4,41.5,30.08,East,95,3.0,3.0,80,0.00,,,0.00,Wunderground v.1.15,2013-01-30 06:01:00,
2013-01-30 08:10:00,47.5,41.3,30.08,ESE,108,4.0,8.0,79,0.00,,,0.00,Wunderground v.1.15,2013-01-30 06:10:00,
2013-01-30 08:16:00,47.7,41.5,30.08,ESE,104,5.0,5.0,79,0.00,,,0.00,Wunderground v.1.15,2013-01-30 06:16:00,
2013-01-30 08:25:00,47.9,41.4,30.08,ESE,110,4.0,4.0,78,0.00,,,0.00,Wunderground v.1.15,2013-01-30 06:25:00,
2013-01-30 08:31:00,48.2,41.3,30.07,East,99,5.0,5.0,77,0.00,,,0.00,Wunderground v.1.15,2013-01-30 06:31:00,
2013-01-30 08:40:00,48.4,41.2,30.07,East,95,4.0,5.0,76,0.00,,,0.00,Wunderground v.1.15,2013-01-30 06:40:00,
2013-01-30 08:46:00,48.6,41.4,30.06,East,95,4.0,4.0,76,0.00,,,0.00,Wunderground v.1.15,2013-01-30 06:46:00,
2013-01-30 08:55:00,48.8,41.6,30.07,East,94,2.0,4.0,76,0.00,,,0.00,Wunderground v.1.15,2013-01-30 06:55:00,
2013-01-30 09:05:00,49.1,41.5,30.06,East,80,3.0,3.0,75,0.00,,,0.00,Wunderground v.1.15,2013-01-30 07:05:00,
2013-01-30 09:10:00,49.3,41.4,30.06,East,92,3.0,3.0,74,0.00,,,0.00,Wunderground v.1.15,2013-01-30 07:10:00,
2013-01-30 09:16:00,49.5,41.2,30.06,East,90,3.0,3.0,73,0.00,,,0.00,Wunderground v.1.15,2013-01-30 07:16:00,
2013-01-30 09:25:00,50.0,41.3,30.06,ENE,78,1.0,3.0,72,0.00,,,0.00,Wunderground v.1.15,2013-01-30 07:25:00,
2013-01-30 09:31:00,50.2,41.2,30.05,East,95,1.0,1.0,71,0.00,,,0.00,Wunderground v.1.15,2013-01-30 07:31:00,
2013-01-30 09:40:00,50.6,41.2,30.06,East,99,1.0,5.0,70,0.00,,,0.00,Wunderground v.1.15,2013-01-30 07:40:00,
2013-01-30 09:46:00,50.8,41.4,30.06,East,100,1.0,1.0,70,0.00,,,0.00,Wunderground v.1.15,2013-01-30 07:46:00,
2013-01-30 09:55:00,51.0,40.8,30.06,East,101,1.0,1.0,68,0.00,,,0.00,Wunderground v.1.15,2013-01-30 07:55:00,
2013-01-30 10:01:00,51.1,40.9,30.06,ENE,63,1.0,2.0,68,0.00,,,0.00,Wunderground v.1.15,2013-01-30 08:01:00,
2013-01-30 10:10:00,51.3,40.7,30.07,East,87,1.0,4.0,67,0.00,,,0.00,Wunderground v.1.15,2013-01-30 08:10:00,
2013-01-30 10:16:00,51.5,40.9,30.07,East,87,0.0,0.0,67,0.00,,,0.00,Wunderground v.1.15,2013-01-30 08:16:00,
2013-01-30 10:25:00,51.8,41.6,30.07,East,86,0.0,0.0,68,0.00,,,0.00,Wunderground v.1.15,2013-01-30 08:25:00,
2013-01-30 10:31:00,52.1,41.9,30.07,NE,38,0.0,1.0,68,0.00,,,0.00,Wunderground v.1.15,2013-01-30 08:31:00,
2013-01-30 10:40:00,52.5,42.2,30.06,NE,38,0.0,0.0,68,0.00,,,0.00,Wunderground v.1.15,2013-01-30 08:40:00,
2013-01-30 10:46:00,52.8,42.1,30.06,NE,38,0.0,0.0,67,0.00,,,0.00,Wunderground v.1.15,2013-01-30 08:46:00,
2013-01-30 10:55:00,53.1,42.0,30.06,North,355,0.0,0.0,66,0.00,,,0.00,Wunderground v.1.15,2013-01-30 08:55:00,
2013-01-30 11:05:00,53.4,42.7,30.06,North,355,1.0,1.0,67,0.00,,,0.00,Wunderground v.1.15,2013-01-30 09:05:00,
2013-01-30 11:10:00,53.6,42.9,30.05,WNW,287,1.0,1.0,67,0.00,,,0.00,Wunderground v.1.15,2013-01-30 09:10:00,
2013-01-30 11:20:00,53.7,42.6,30.05,North,11,1.0,1.0,66,0.00,,,0.00,Wunderground v.1.15,2013-01-30 09:20:00,
2013-01-30 11:35:00,53.9,43.2,30.05,North,355,2.0,3.0,67,0.00,,,0.00,Wunderground v.1.15,2013-01-30 09:35:00,
2013-01-30 11:40:00,53.9,43.2,30.05,NNW,342,3.0,3.0,67,0.00,,,0.00,Wunderground v.1.15,2013-01-30 09:40:00,
2013-01-30 11:50:00,54.1,43.8,30.04,North,350,1.0,1.0,68,0.00,,,0.00,Wunderground v.1.15,2013-01-30 09:50:00,
2013-01-30 11:55:00,54.2,43.9,30.04,North,350,0.0,1.0,68,0.00,,,0.00,Wunderground v.1.15,2013-01-30 09:55:00,
2013-01-30 12:05:00,54.7,44.3,30.04,NE,37,1.0,1.0,68,0.00,,,0.00,Wunderground v.1.15,2013-01-30 10:05:00,
2013-01-30 12:16:00,55.5,45.5,30.03,North,355,1.0,1.0,69,0.00,,,0.00,Wunderground v.1.15,2013-01-30 10:16:00,
2013-01-30 12:25:00,56.1,45.3,30.03,ENE,64,1.0,2.0,67,0.00,,,0.00,Wunderground v.1.15,2013-01-30 10:25:00,
2013-01-30 12:31:00,56.1,44.9,30.02,North,5,1.0,6.0,66,0.00,,,0.00,Wunderground v.1.15,2013-01-30 10:31:00,
2013-01-30 12:40:00,56.5,44.9,30.02,ENE,75,2.0,4.0,65,0.00,,,0.00,Wunderground v.1.15,2013-01-30 10:40:00,
2013-01-30 12:46:00,56.3,44.7,30.02,NNE,21,1.0,3.0,65,0.00,,,0.00,Wunderground v.1.15,2013-01-30 10:46:00,
2013-01-30 12:55:00,56.7,45.5,30.02,ESE,110,2.0,2.0,66,0.00,,,0.00,Wunderground v.1.15,2013-01-30 10:55:00,
2013-01-30 13:05:00,57.2,46.3,30.02,NE,38,3.0,3.0,67,0.00,,,0.00,Wunderground v.1.15,2013-01-30 11:05:00,
2013-01-30 13:10:00,57.4,46.9,30.01,East,80,3.0,3.0,68,0.00,,,0.00,Wunderground v.1.15,2013-01-30 11:10:00,
2013-01-30 13:20:00,57.9,47.0,30.01,NNE,22,1.0,1.0,67,0.00,,,0.00,Wunderground v.1.15,2013-01-30 11:20:00,
2013-01-30 13:25:00,58.1,46.8,30.01,North,355,1.0,1.0,66,0.00,,,0.00,Wunderground v.1.15,2013-01-30 11:25:00,
2013-01-30 13:35:00,58.5,48.0,30.00,NNW,331,2.0,5.0,68,0.00,,,0.00,Wunderground v.1.15,2013-01-30 11:35:00,
2013-01-30 13:40:00,58.3,47.8,30.01,WNW,302,2.0,5.0,68,0.00,,,0.00,Wunderground v.1.15,2013-01-30 11:40:00,
2013-01-30 13:50:00,57.7,47.6,30.01,NW,316,3.0,3.0,69,0.00,,,0.00,Wunderground v.1.15,2013-01-30 11:50:00,
2013-01-30 13:55:00,57.3,47.6,30.00,NW,307,4.0,4.0,70,0.00,,,0.00,Wunderground v.1.15,2013-01-30 11:55:00,
2013-01-30 14:05:00,57.2,47.9,30.00,North,360,2.0,6.0,71,0.00,,,0.00,Wunderground v.1.15,2013-01-30 12:05:00,
2013-01-30 14:10:00,57.3,47.6,30.00,NW,323,2.0,6.0,70,0.00,,,0.00,Wunderground v.1.15,2013-01-30 12:10:00,
2013-01-30 14:16:00,57.6,47.9,29.99,NW,306,2.0,4.0,70,0.00,,,0.00,Wunderground v.1.15,2013-01-30 12:16:00,
2013-01-30 14:25:00,57.8,47.3,29.99,North,360,4.0,5.0,68,0.00,,,0.00,Wunderground v.1.15,2013-01-30 12:25:00,
2013-01-30 14:31:00,58.0,47.1,29.99,NNW,340,3.0,5.0,67,0.00,,,0.00,Wunderground v.1.15,2013-01-30 12:31:00,
2013-01-30 14:40:00,58.4,47.5,29.98,North,355,3.0,7.0,67,0.00,,,0.00,Wunderground v.1.15,2013-01-30 12:40:00,
2013-01-30 14:50:00,58.6,47.7,29.98,NNW,341,4.0,4.0,67,0.00,,,0.00,Wunderground v.1.15,2013-01-30 12:50:00,
2013-01-30 15:01:00,58.5,47.2,29.98,NNW,343,4.0,4.0,66,0.00,,,0.00,Wunderground v.1.15,2013-01-30 13:01:00,
2013-01-30 15:10:00,58.3,47.4,29.98,NNW,336,4.0,7.0,67,0.00,,,0.00,Wunderground v.1.15,2013-01-30 13:10:00,
2013-01-30 15:16:00,58.1,47.6,29.98,NNW,344,3.0,3.0,68,0.00,,,0.00,Wunderground v.1.15,2013-01-30 13:16:00,
2013-01-30 15:25:00,58.1,48.0,29.98,NNW,346,3.0,6.0,69,0.00,,,0.00,Wunderground v.1.15,2013-01-30 13:25:00,
2013-01-30 15:31:00,57.8,48.1,29.98,North,9,4.0,6.0,70,0.00,,,0.00,Wunderground v.1.15,2013-01-30 13:31:00,
2013-01-30 15:40:00,57.8,47.7,29.98,North,355,3.0,3.0,69,0.00,,,0.00,Wunderground v.1.15,2013-01-30 13:40:00,
2013-01-30 15:46:00,57.9,47.4,29.97,NNW,340,3.0,5.0,68,0.00,,,0.00,Wunderground v.1.15,2013-01-30 13:46:00,
2013-01-30 15:55:00,58.1,48.0,29.96,NW,319,3.0,5.0,69,0.00,,,0.00,Wunderground v.1.15,2013-01-30 13:55:00,
2013-01-30 16:01:00,58.1,48.7,29.96,NNW,333,3.0,4.0,71,0.00,,,0.00,Wunderground v.1.15,2013-01-30 14:01:00,
2013-01-30 16:10:00,57.7,48.7,29.97,NNW,336,4.0,4.0,72,0.00,,,0.00,Wunderground v.1.15,2013-01-30 14:10:00,
2013-01-30 16:16:00,57.7,49.1,29.97,NNW,336,2.0,2.0,73,0.00,,,0.00,Wunderground v.1.15,2013-01-30 14:16:00,
2013-01-30 16:25:00,58.1,49.5,29.96,North,5,1.0,4.0,73,0.00,,,0.00,Wunderground v.1.15,2013-01-30 14:25:00,
2013-01-30 16:35:00,58.4,49.4,29.96,NNE,14,2.0,2.0,72,0.00,,,0.00,Wunderground v.1.15,2013-01-30 14:35:00,
2013-01-30 16:40:00,58.6,49.2,29.97,NNE,14,1.0,2.0,71,0.00,,,0.00,Wunderground v.1.15,2013-01-30 14:40:00,
2013-01-30 16:50:00,58.6,48.1,29.96,NE,44,0.0,0.0,68,0.00,,,0.00,Wunderground v.1.15,2013-01-30 14:50:00,
2013-01-30 17:01:00,58.4,45.0,29.97,East,83,2.0,2.0,61,0.00,,,0.00,Wunderground v.1.15,2013-01-30 15:01:00,
2013-01-30 17:10:00,58.6,44.3,29.96,East,88,1.0,2.0,59,0.00,,,0.00,Wunderground v.1.15,2013-01-30 15:10:00,
2013-01-30 17:16:00,58.6,44.3,29.96,East,88,0.0,0.0,59,0.00,,,0.00,Wunderground v.1.15,2013-01-30 15:16:00,
2013-01-30 17:25:00,58.7,44.8,29.96,East,88,0.0,0.0,60,0.00,,,0.00,Wunderground v.1.15,2013-01-30 15:25:00,
2013-01-30 17:31:00,58.6,43.9,29.96,East,88,0.0,0.0,58,0.00,,,0.00,Wunderground v.1.15,2013-01-30 15:31:00,
2013-01-30 17:40:00,58.1,40.1,29.97,ESE,105,2.0,5.0,51,0.00,,,0.00,Wunderground v.1.15,2013-01-30 15:40:00,
2013-01-30 17:46:00,58.1,39.0,29.97,ESE,107,4.0,4.0,49,0.00,,,0.00,Wunderground v.1.15,2013-01-30 15:46:00,
2013-01-30 17:55:00,58.0,38.9,29.97,ESE,103,2.0,2.0,49,0.00,,,0.00,Wunderground v.1.15,2013-01-30 15:55:00,
2013-01-30 18:05:00,57.8,38.8,29.98,ESE,103,1.0,3.0,49,0.00,,,0.00,Wunderground v.1.15,2013-01-30 16:05:00,
2013-01-30 18:10:00,57.8,38.8,29.98,East,88,1.0,3.0,49,0.00,,,0.00,Wunderground v.1.15,2013-01-30 16:10:00,
2013-01-30 18:16:00,57.7,38.7,29.98,East,82,2.0,2.0,49,0.00,,,0.00,Wunderground v.1.15,2013-01-30 16:16:00,
2013-01-30 18:25:00,57.6,38.6,29.98,ESE,107,2.0,2.0,49,0.00,,,0.00,Wunderground v.1.15,2013-01-30 16:25:00,
2013-01-30 18:31:00,57.6,38.6,29.98,ESE,107,3.0,3.0,49,0.00,,,0.00,Wunderground v.1.15,2013-01-30 16:31:00,
2013-01-30 18:40:00,57.5,39.0,29.98,East,91,3.0,3.0,50,0.00,,,0.00,Wunderground v.1.15,2013-01-30 16:40:00,
2013-01-30 18:50:00,57.3,39.3,29.98,ENE,74,2.0,3.0,51,0.00,,,0.00,Wunderground v.1.15,2013-01-30 16:50:00,
2013-01-30 19:05:00,57.4,37.3,29.98,ENE,78,5.0,5.0,47,0.00,,,0.00,Wunderground v.1.15,2013-01-30 17:05:00,
2013-01-30 19:10:00,57.4,37.9,29.98,ESE,112,5.0,5.0,48,0.00,,,0.00,Wunderground v.1.15,2013-01-30 17:10:00,
2013-01-30 19:16:00,57.3,37.8,29.98,ESE,105,5.0,5.0,48,0.00,,,0.00,Wunderground v.1.15,2013-01-30 17:16:00,
2013-01-30 19:25:00,57.1,37.6,29.98,ESE,105,5.0,5.0,48,0.00,,,0.00,Wunderground v.1.15,2013-01-30 17:25:00,
2013-01-30 19:31:00,57.1,36.5,29.98,ESE,114,7.0,7.0,46,0.00,,,0.00,Wunderground v.1.15,2013-01-30 17:31:00,
2013-01-30 19:40:00,57.1,35.9,29.98,ESE,119,9.0,9.0,45,0.00,,,0.00,Wunderground v.1.15,2013-01-30 17:40:00,
2013-01-30 19:46:00,57.1,35.9,29.98,ESE,121,9.0,12.0,45,0.00,,,0.00,Wunderground v.1.15,2013-01-30 17:46:00,
2013-01-30 19:55:00,57.0,35.9,29.98,SE,128,8.0,12.0,45,0.00,,,0.00,Wunderground v.1.15,2013-01-30 17:55:00,
2013-01-30 20:01:00,56.9,35.8,29.98,East,87,8.0,8.0,45,0.00,,,0.00,Wunderground v.1.15,2013-01-30 18:01:00,
2013-01-30 20:10:00,56.8,36.2,29.98,ESE,107,7.0,8.0,46,0.00,,,0.00,Wunderground v.1.15,2013-01-30 18:10:00,
2013-01-30 20:20:00,56.8,35.7,29.99,SE,127,8.0,8.0,45,0.00,,,0.00,Wunderground v.1.15,2013-01-30 18:20:00,
2013-01-30 20:25:00,56.8,35.7,29.98,ESE,114,8.0,8.0,45,0.00,,,0.00,Wunderground v.1.15,2013-01-30 18:25:00,
2013-01-30 20:35:00,56.7,35.6,29.98,SE,129,9.0,9.0,45,0.00,,,0.00,Wunderground v.1.15,2013-01-30 18:35:00,
2013-01-30 20:40:00,56.6,35.5,29.98,ESE,123,8.0,9.0,45,0.00,,,0.00,Wunderground v.1.15,2013-01-30 18:40:00,
2013-01-30 20:50:00,56.5,36.0,29.98,ESE,115,9.0,12.0,46,0.00,,,0.00,Wunderground v.1.15,2013-01-30 18:50:00,
2013-01-30 21:01:00,56.4,35.9,29.99,ESE,107,6.0,6.0,46,0.00,,,0.00,Wunderground v.1.15,2013-01-30 19:01:00,
2013-01-30 21:10:00,56.2,35.7,29.98,ESE,111,5.0,7.0,46,0.00,,,0.00,Wunderground v.1.15,2013-01-30 19:10:00,
2013-01-30 21:16:00,56.1,36.1,29.98,East,100,4.0,4.0,47,0.00,,,0.00,Wunderground v.1.15,2013-01-30 19:16:00,
2013-01-30 21:25:00,56.0,36.6,29.99,East,94,2.0,2.0,48,0.00,,,0.00,Wunderground v.1.15,2013-01-30 19:25:00,
2013-01-30 21:31:00,55.7,36.8,29.99,East,90,2.0,2.0,49,0.00,,,0.00,Wunderground v.1.15,2013-01-30 19:31:00,
2013-01-30 21:40:00,55.6,37.2,29.99,East,94,1.0,2.0,50,0.00,,,0.00,Wunderground v.1.15,2013-01-30 19:40:00,
2013-01-30 21:50:00,55.4,37.1,29.99,East,94,2.0,3.0,50,0.00,,,0.00,Wunderground v.1.15,2013-01-30 19:50:00,
2013-01-30 21:55:00,55.4,37.6,29.99,ESE,120,2.0,3.0,51,0.00,,,0.00,Wunderground v.1.15,2013-01-30 19:55:00,
2013-01-30 22:01:00,55.4,37.6,29.99,ESE,109,3.0,4.0,51,0.00,,,0.00,Wunderground v.1.15,2013-01-30 20:01:00,
2013-01-30 22:10:00,55.3,38.0,29.99,ESE,105,4.0,4.0,52,0.00,,,0.00,Wunderground v.1.15,2013-01-30 20:10:00,
2013-01-30 22:20:00,55.2,37.9,29.99,ESE,123,2.0,4.0,52,0.00,,,0.00,Wunderground v.1.15,2013-01-30 20:20:00,
2013-01-30 22:25:00,55.2,37.9,29.99,ESE,103,3.0,4.0,52,0.00,,,0.00,Wunderground v.1.15,2013-01-30 20:25:00,
2013-01-30 22:35:00,55.3,38.0,29.99,East,92,3.0,3.0,52,0.00,,,0.00,Wunderground v.1.15,2013-01-30 20:35:00,
2013-01-30 22:40:00,55.3,38.0,29.99,East,84,3.0,3.0,52,0.00,,,0.00,Wunderground v.1.15,2013-01-30 20:40:00,
2013-01-30 22:50:00,55.4,37.6,30.00,ESE,102,2.0,7.0,51,0.00,,,0.00,Wunderground v.1.15,2013-01-30 20:50:00,
2013-01-30 23:01:00,55.5,37.1,30.00,ESE,105,2.0,3.0,50,0.00,,,0.00,Wunderground v.1.15,2013-01-30 21:01:00,
2013-01-30 23:10:00,55.6,37.2,30.00,SE,135,3.0,5.0,50,0.00,,,0.00,Wunderground v.1.15,2013-01-30 21:10:00,
2013-01-30 23:16:00,55.6,37.2,30.00,ESE,113,3.0,3.0,50,0.00,,,0.00,Wunderground v.1.15,2013-01-30 21:16:00,
2013-01-30 23:25:00,55.7,37.3,29.99,ESE,111,4.0,4.0,50,0.00,,,0.00,Wunderground v.1.15,2013-01-30 21:25:00,
2013-01-30 23:31:00,55.7,37.8,29.99,SE,139,2.0,4.0,51,0.00,,,0.00,Wunderground v.1.15,2013-01-30 21:31:00,
2013-01-30 23:40:00,55.6,37.7,30.00,East,98,1.0,1.0,51,0.00,,,0.00,Wunderground v.1.15,2013-01-30 21:40:00,
2013-01-30 23:50:00,55.8,38.4,30.00,SE,132,1.0,1.0,52,0.00,,,0.00,Wunderground v.1.15,2013-01-30 21:50:00,
2013-01-30 23:55:00,55.8,38.4,30.00,SE,132,0.0,1.0,52,0.00,,,0.00,Wunderground v.1.15,2013-01-30 21:55:00,